Meacham, OR

10:42 PM PDT on July 27, 2017 (GMT -0700)
Meacham

Weather History for KMEH - September, 2013

Change the Weather History Date:

Sunday, September 1, 2013

  Actual Average Record
Temperature  
Mean Temperature 63 °F -  
Max Temperature 86 °F 72 °F 95 °F (1998)
Min Temperature 42 °F 35 °F 26 °F (1999)
Degree Days  
Heating Degree Days 2    
Growing Degree Days 13 (Base 50)    
Moisture  
Dew Point 42 °F    
Average Humidity 47    
Maximum Humidity 86    
Minimum Humidity 17    
Precipitation  
Precipitation 0.00 in - - ()
Sea Level Pressure  
Sea Level Pressure 29.87 in    
Wind  
Wind Speed 0 mph (North)    
Max Wind Speed 6 mph    
Max Gust Speed -    
Visibility 10 miles    
Events Rain    
Averages and records for this station are not official NWS values.
T = Trace of Precipitation, MM = Missing Value Source: NWS Daily Summary

Daily Weather History Graph

Daily Weather History Graph

Search for Another Location

Airport or City:

Trip Planner

Search our weather history database for the weather conditions in past years. The results will help you decide how hot, cold, wet, or windy it might be!

Date:

Astronomy

Sep. 01, 2013 Rise Set
Actual Time 6:15 AM PDT 7:30 PM PDT
Civil Twilight 5:44 AM PDT 8:01 PM PDT
Nautical Twilight 5:07 AM PDT 8:37 PM PDT
Astronomical Twilight 4:28 AM PDT 9:16 PM PDT
Moon 2:34 AM PDT (9/1) 5:16 PM PDT (9/1)
Length of Visible Light 14h 16m
Length of Day
13h 15m
Waning Crescent, 13% of the Moon is Illuminated
Sep 1
Waning Crescent
Sep 5
New
Sep 12
First Quarter
Sep 19
Full
Sep 26
Last Quarter

Hourly Weather History & Observations

Time (PDT) Temp. Dew Point Humidity Pressure Visibility Wind Dir Wind Speed Gust Speed Precip Events Conditions
12:56 AM 50.0 °F 42.1 °F 74% 29.91 in 10.0 mi Calm Calm - N/A   Clear
1:56 AM 46.9 °F 41.0 °F 80% 29.91 in 10.0 mi Calm Calm - N/A   Clear
2:56 AM 46.0 °F 39.9 °F 79% 29.91 in 10.0 mi Calm Calm - N/A   Clear
3:56 AM 44.1 °F 39.0 °F 82% 29.90 in 10.0 mi Calm Calm - N/A   Clear
4:56 AM 43.0 °F 37.9 °F 82% 29.90 in 10.0 mi Calm Calm - N/A   Clear
5:56 AM 42.1 °F 37.9 °F 85% 29.90 in 10.0 mi Calm Calm - N/A   Clear
6:56 AM 43.0 °F 39.0 °F 86% 29.90 in 10.0 mi Calm Calm - N/A   Clear
7:56 AM 53.1 °F 42.1 °F 66% 29.90 in 10.0 mi Calm Calm - N/A   Clear
8:56 AM 71.1 °F 46.9 °F 42% 29.88 in 10.0 mi Calm Calm - N/A   Clear
9:56 AM 80.1 °F 42.1 °F 26% 29.88 in 10.0 mi Calm Calm - N/A   Clear
10:56 AM 80.1 °F 39.9 °F 24% 29.89 in 10.0 mi Calm Calm - N/A   Partly Cloudy
11:56 AM 84.9 °F 36.0 °F 17% 29.88 in 10.0 mi Variable 5.8 mph - N/A   Clear
12:56 PM 84.9 °F 37.0 °F 18% 29.87 in 10.0 mi Calm Calm - N/A   Clear
1:56 PM 82.0 °F 41.0 °F 23% 29.88 in 10.0 mi Calm Calm - 0.00 in Rain Light Rain
2:56 PM 82.0 °F 41.0 °F 23% 29.88 in 10.0 mi Calm Calm - 0.00 in   Partly Cloudy
3:56 PM 84.9 °F 37.9 °F 19% 29.85 in 10.0 mi Calm Calm - N/A   Clear
4:56 PM 84.9 °F 41.0 °F 21% 29.84 in 10.0 mi Variable 4.6 mph - N/A   Clear
5:56 PM 78.1 °F 46.9 °F 33% 29.87 in 10.0 mi Calm Calm - 0.00 in   Overcast
6:56 PM 75.9 °F 45.0 °F 33% 29.85 in 10.0 mi Calm Calm - 0.00 in Rain Light Rain
7:56 PM 75.0 °F 44.1 °F 33% 29.85 in 10.0 mi Calm Calm - 0.00 in   Clear
8:56 PM 71.1 °F 44.1 °F 38% 29.82 in 10.0 mi Calm Calm - N/A   Clear
9:56 PM 69.1 °F 45.0 °F 42% 29.81 in 10.0 mi Calm Calm - N/A   Scattered Clouds
10:56 PM 64.9 °F 45.0 °F 48% 29.82 in 10.0 mi Calm Calm - N/A   Clear
11:56 PM 63.0 °F 46.0 °F 54% 29.80 in 10.0 mi Calm Calm - N/A   Scattered Clouds